Showing default

EXCITE, 43819

Orbit data source: Space-Track

EXCITE, 43819 is a payload satellite owned by DARPA (US) in SSO that was launched on Mon, 03 Dec 2018 UTC via an FALCON 9 launch vehicle from the Air Force Western Test Range (AFWTR). Payload-class satellites include a variety of spacecraft equipped with specific instruments for various scientific and technological missions. These include communications satellites like Starlink; space stations such as the ISS; scientific satellites like the Hubble; Earth observation satellites from companies like Planet Labs, Umbra, and HawkEye 360; GPS; miniature CubeSats for education and research; and military/defense satellites.

Loading next visibility...
Identifier
43819, 2018-099BP
Orbit
SSO
Country
Flag of USUS
Related business
Manufacturer
NovaWurks
Mission
Operational Defense Technology
Bus & Motor
HISAT, Unknown motor
Mass
~155 kg wet, ~155 kg dry
Launch date (UTC)
2018-12-03 (7 years ago)
Launch vehicle
FALCON 9
Launch site
Air Force Western Test Range (AFWTR)
Object type
Payload
Rocket body
Debris
Shape & HBR
Box, 0.5 m
Radar Cross Section
1.500 m², Medium (>0.1 m² and < 1m²)

Expand to show TLE details & history
Last TLE update: 11 hours ago

TLE from 11 hours ago
0 EXCITE
1 43819U 18099BP  25339.86366100  .00005493  00000-0  38580-3 0  9992
2 43819  97.4250  21.1020 0017463 294.8701  65.0710 15.05404721382654
Epoch: 2025-12-05T20:43Z
TLE epoch observation values (Epoch: 2025-12-05T20:43:40.310Z)
Latitude
-0.00005°
Longitude
-4.7156°
Altitude
548.25 km
Speed
7.591 km/s
True Right ascension
01h 24m 24s
True Declination
0° 00' 00"
Sunlit
Object was in full shadow at epoch
Visualization orbit readout
Latitude
Unknown
Longitude
Unknown
Altitude
Unknown
Speed
Unknown
Apparent Right ascension
Unknown
Apparent Declination
Unknown
Sunlit
N/A
Visualization observer readout
Local Sidereal Time
05:24:26
Azimuth
Unknown
Elevation
Unknown
Doppler factor
Unknown
Orbital elements
Apogee altitude
559.344 km
Perigee altitude
535.156 km
Semi-major axis
6,925.387 km
Eccentricity
0.00175
Inclination
97.425°
RAAN
21.102°
Arg. of periapsis
294.8701°
True anomaly
65.25263°
Mean anomaly
65.071°
Eccentric anomaly
65.1618°
Mean motion
3.76597 °/min
Orbital period
95.59 mins
BSTAR
0.0003858
Loading maneuver chart data...
Computing Atmospheric mass density...
Loading historical data...
Loading historical data...
Loading historical data...
Loading historical data...
Loading historical data...
Loading historical data...
Loading historical data...

Documentation

Showing up to 5 results
|